START_TIME,STEP,MOV.,A46,t_acc.,A13,t_acc.,M47,t_acc.,A17,t_acc.,A28,t_acc.,M38,t_acc.
1979-03-03 03:00:14.980 ,5,0,,0,1600.,4.8,672.,4.8,,0,0.,4.8,288.,4.8
1979-03-03 03:00:19.780 ,5,0,,0,1728.,4.8,720.,4.8,,0,0.,4.8,288.,4.8
1979-03-03 03:00:24.580 ,5,0,,0,1568.,4.8,688.,4.8,,0,0.,4.8,320.,4.8
1979-03-03 03:00:29.380 ,5,0,,0,0.,4.8,0.,4.8,,0,0.,4.8,304.,4.8
1979-03-03 03:00:34.180 ,5,0,,0,0.,4.8,0.,4.8,,0,0.,4.8,288.,4.8
1979-03-03 03:00:38.980 ,6,0,,0,0.,4.8,0.,4.8,,0,0.,4.8,288.,4.8
1979-03-03 03:00:43.780 ,6,0,,0,0.,4.8,0.,4.8,,0,0.,4.8,328.,4.8
1979-03-03 03:00:48.580 ,6,0,,0,280.,4.8,110.,4.8,,0,0.,4.8,312.,4.8
1979-03-03 03:00:53.380 ,6,0,,0,1920.,4.8,816.,4.8,,0,0.,4.8,296.,4.8
1979-03-03 03:00:58.180 ,6,0,,0,1952.,4.8,800.,4.8,,0,0.,4.8,312.,4.8
1979-03-03 03:01:02.980 ,7,0,,0,1856.,4.8,816.,4.8,,0,0.,4.8,304.,4.8
1979-03-03 03:01:07.780 ,7,0,,0,1344.,4.8,544.,4.8,,0,0.,4.8,204.,4.8
1979-03-03 03:01:12.580 ,7,0,,0,14.,4.8,0.,4.8,,0,0.,4.8,0.,4.8
1979-03-03 03:01:17.380 ,7,0,,0,0.,4.8,0.,4.8,,0,0.,4.8,0.,4.8
1979-03-03 03:01:22.180 ,7,0,,0,0.,4.8,0.,4.8,,0,0.,4.8,0.,4.8
1979-03-03 03:01:26.980 ,7,0,,0,0.,4.8,0.,4.8,,0,0.,4.8,0.,4.8
1979-03-03 03:01:31.780 ,7,0,,0,1.,4.8,0.,4.8,,0,0.,4.8,0.,4.8
1979-03-03 03:01:36.580 ,7,0,,0,1.,4.8,0.,4.8,,0,0.,4.8,0.,4.8
1979-03-03 03:01:41.380 ,7,0,,0,9.,4.8,0.,4.8,,0,0.,4.8,0.,4.8
1979-03-03 03:01:46.180 ,7,0,,0,7.,4.8,0.,4.8,,0,0.,4.8,0.,4.8
1979-03-03 03:01:50.980 ,6,0,,0,10.,4.8,0.,4.8,,0,0.,4.8,0.,4.8
1979-03-03 03:01:55.780 ,6,0,,0,688.,4.8,320.,4.8,,0,0.,4.8,106.,4.8
1979-03-03 03:02:00.580 ,6,0,,0,1632.,4.8,752.,4.8,,0,0.,4.8,328.,4.8
1979-03-03 03:02:05.380 ,6,0,,0,0.,4.8,0.,4.8,,0,0.,4.8,312.,4.8
1979-03-03 03:02:10.180 ,6,0,,0,1.,4.8,0.,4.8,,0,0.,4.8,312.,4.8
1979-03-03 03:02:14.980 ,5,0,,0,1.,4.8,0.,4.8,,0,0.,4.8,344.,4.8
1979-03-03 03:02:19.780 ,5,0,,0,0.,4.8,0.,4.8,,0,0.,4.8,288.,4.8
1979-03-03 03:02:24.580 ,5,0,,0,312.,4.8,160.,4.8,,0,0.,4.8,296.,4.8
1979-03-03 03:02:29.380 ,5,0,,0,1824.,4.8,816.,4.8,,0,0.,4.8,272.,4.8
1979-03-03 03:02:34.180 ,5,0,,0,1856.,4.8,848.,4.8,,0,0.,4.8,304.,4.8
1979-03-03 03:02:38.980 ,4,0,,0,1952.,4.8,832.,4.8,,0,0.,4.8,304.,4.8
1979-03-03 03:02:43.780 ,4,0,,0,1824.,4.8,768.,4.8,,0,0.,4.8,296.,4.8
1979-03-03 03:02:48.580 ,4,0,,0,1216.,4.8,528.,4.8,,0,0.,4.8,264.,4.8
1979-03-03 03:02:53.380 ,4,0,,0,0.,4.8,0.,4.8,,0,0.,4.8,264.,4.8
1979-03-03 03:02:58.180 ,4,0,,0,1.,4.8,0.,4.8,,0,0.,4.8,264.,4.8
1979-03-03 03:03:02.980 ,3,0,,0,0.,4.8,0.,4.8,,0,0.,4.8,296.,4.8
1979-03-03 03:03:07.780 ,3,0,,0,0.,4.8,0.,4.8,,0,0.,4.8,264.,4.8
1979-03-03 03:03:12.580 ,3,0,,0,176.,4.8,66.,4.8,,0,0.,4.8,200.,4.8
1979-03-03 03:03:17.380 ,3,0,,0,1120.,4.8,400.,4.8,,0,0.,4.8,200.,4.8
1979-03-03 03:03:22.180 ,3,0,,0,1056.,4.8,416.,4.8,,0,0.,4.8,212.,4.8
1979-03-03 03:03:26.980 ,2,0,,0,1088.,4.8,416.,4.8,,0,0.,4.8,212.,4.8
1979-03-03 03:03:31.780 ,2,0,,0,944.,4.8,328.,4.8,,0,0.,4.8,160.,4.8
1979-03-03 03:03:36.580 ,2,0,,0,672.,4.8,192.,4.8,,0,0.,4.8,106.,4.8
1979-03-03 03:03:41.380 ,2,0,,0,0.,4.8,0.,4.8,,0,0.,4.8,110.,4.8
1979-03-03 03:03:46.180 ,2,0,,0,0.,4.8,0.,4.8,,0,0.,4.8,132.,4.8
1979-03-03 03:03:50.980 ,1,0,,0,0.,4.8,0.,4.8,,0,0.,4.8,132.,4.8
1979-03-03 03:03:55.780 ,1,0,,0,2.,4.8,0.,4.8,,0,0.,4.8,140.,4.8
1979-03-03 03:04:00.580 ,1,0,,0,144.,4.8,44.,4.8,,0,0.,4.8,148.,4.8
1979-03-03 03:04:05.380 ,1,0,,0,928.,4.8,256.,4.8,,0,0.,4.8,152.,4.8
1979-03-03 03:04:10.180 ,1,0,,0,960.,4.8,296.,4.8,,0,0.,4.8,148.,4.8
1979-03-03 03:04:14.980 ,0,0,,0,944.,4.8,288.,4.8,,0,0.,4.8,124.,4.8
1979-03-03 03:04:19.780 ,0,0,,0,1056.,4.8,336.,4.8,,0,0.,4.8,164.,4.8
1979-03-03 03:04:24.580 ,0,0,,0,1056.,4.8,392.,4.8,,0,0.,4.8,180.,4.8
1979-03-03 03:04:29.380 ,0,0,,0,0.,4.8,0.,4.8,,0,0.,4.8,180.,4.8
1979-03-03 03:04:34.180 ,0,0,,0,0.,4.8,0.,4.8,,0,0.,4.8,160.,4.8
1979-03-03 03:04:38.980 ,0,0,,0,0.,4.8,0.,4.8,,0,0.,4.8,188.,4.8
1979-03-03 03:04:43.780 ,0,0,,0,0.,4.8,0.,4.8,,0,0.,4.8,192.,4.8
1979-03-03 03:04:48.580 ,0,0,,0,208.,4.8,94.,4.8,,0,0.,4.8,172.,4.8
1979-03-03 03:04:53.380 ,0,0,,0,1184.,4.8,448.,4.8,,0,0.,4.8,176.,4.8
1979-03-03 03:04:58.180 ,0,0,,0,1248.,4.8,448.,4.8,,0,0.,4.8,168.,4.8
1979-03-03 03:05:02.980 ,1,0,,0,1216.,4.8,456.,4.8,,0,0.,4.8,192.,4.8
1979-03-03 03:05:07.780 ,1,0,,0,1152.,4.8,384.,4.8,,0,0.,4.8,180.,4.8
1979-03-03 03:05:12.580 ,1,0,,0,832.,4.8,236.,4.8,,0,0.,4.8,140.,4.8
1979-03-03 03:05:17.380 ,1,0,,0,0.,4.8,0.,4.8,,0,0.,4.8,152.,4.8
1979-03-03 03:05:22.180 ,1,0,,0,0.,4.8,0.,4.8,,0,0.,4.8,128.,4.8
1979-03-03 03:05:26.980 ,2,0,,0,0.,4.8,0.,4.8,,0,0.,4.8,140.,4.8
1979-03-03 03:05:31.780 ,2,0,,0,1.,4.8,0.,4.8,,0,0.,4.8,140.,4.8
1979-03-03 03:05:36.580 ,2,0,,0,172.,4.8,56.,4.8,,0,0.,4.8,160.,4.8
1979-03-03 03:05:41.380 ,2,0,,0,896.,4.8,232.,4.8,,0,0.,4.8,156.,4.8
1979-03-03 03:05:46.180 ,2,0,,0,880.,4.8,256.,4.8,,0,0.,4.8,140.,4.8
1979-03-03 03:05:50.980 ,3,0,,0,928.,4.8,264.,4.8,,0,0.,4.8,152.,4.8
1979-03-03 03:05:55.780 ,3,0,,0,992.,4.8,344.,4.8,,0,0.,4.8,172.,4.8
1979-03-03 03:06:00.580 ,3,0,,0,1120.,4.8,456.,4.8,,0,0.,4.8,272.,4.8
1979-03-03 03:06:05.380 ,3,0,,0,0.,4.8,0.,4.8,,0,0.,4.8,240.,4.8
1979-03-03 03:06:10.180 ,3,0,,0,0.,4.8,0.,4.8,,0,0.,4.8,236.,4.8
1979-03-03 03:06:14.980 ,4,0,,0,2.,4.8,0.,4.8,,0,0.,4.8,236.,4.8
1979-03-03 03:06:19.780 ,4,0,,0,0.,4.8,0.,4.8,,0,0.,4.8,232.,4.8
1979-03-03 03:06:24.580 ,4,0,,0,304.,4.8,116.,4.8,,0,0.,4.8,256.,4.8
1979-03-03 03:06:29.380 ,4,0,,0,1664.,4.8,704.,4.8,,0,0.,4.8,232.,4.8
1979-03-03 03:06:34.180 ,4,0,,0,1696.,4.8,704.,4.8,,0,0.,4.8,240.,4.8
1979-03-03 03:06:38.980 ,5,0,,0,1728.,4.8,736.,4.8,,0,0.,4.8,272.,4.8
1979-03-03 03:06:43.780 ,5,0,,0,1952.,4.8,816.,4.8,,0,0.,4.8,296.,4.8
1979-03-03 03:06:48.580 ,5,0,,0,1856.,4.8,832.,4.8,,0,0.,4.8,408.,4.8
1979-03-03 03:06:53.380 ,5,0,,0,0.,4.8,0.,4.8,,0,0.,4.8,432.,4.8
1979-03-03 03:06:58.180 ,5,0,,0,0.,4.8,0.,4.8,,0,0.,4.8,440.,4.8
1979-03-03 03:07:02.980 ,6,0,,0,2.,4.8,0.,4.8,,0,0.,4.8,424.,4.8
1979-03-03 03:07:07.780 ,6,0,,0,0.,4.8,0.,4.8,,0,0.,4.8,440.,4.8
1979-03-03 03:07:12.580 ,6,0,,0,376.,4.8,184.,4.8,,0,0.,4.8,416.,4.8
1979-03-03 03:07:17.380 ,6,0,,0,2240.,4.8,1120.,4.8,,0,0.,4.8,424.,4.8
1979-03-03 03:07:22.180 ,6,0,,0,2304.,4.8,1120.,4.8,,0,0.,4.8,424.,4.8
1979-03-03 03:07:26.980 ,7,0,,0,2368.,4.8,1216.,4.8,,0,0.,4.8,384.,4.8
1979-03-03 03:07:31.780 ,7,0,,0,1568.,4.8,768.,4.8,,0,0.,4.8,280.,4.8
1979-03-03 03:07:36.580 ,7,0,,0,12.,4.8,0.,4.8,,0,0.,4.8,0.,4.8
1979-03-03 03:07:41.380 ,7,0,,0,0.,4.8,0.,4.8,,0,0.,4.8,0.,4.8
1979-03-03 03:07:46.180 ,7,0,,0,0.,4.8,0.,4.8,,0,0.,4.8,0.,4.8
1979-03-03 03:07:50.980 ,5,1,,0,0.,4.8,0.,4.8,,0,0.,4.8,0.,4.8
1979-03-03 03:07:55.780 ,5,1,,0,0.,4.8,0.,4.8,,0,0.,4.8,0.,4.8
1979-03-03 03:08:00.580 ,5,1,,0,1.,4.8,0.,4.8,,0,0.,4.8,328.,4.8
1979-03-03 03:08:05.380 ,5,1,,0,0.,4.8,0.,4.8,,0,0.,4.8,456.,4.8
1979-03-03 03:08:10.180 ,5,1,,0,0.,4.8,0.,4.8,,0,0.,4.8,360.,4.8
1979-03-03 03:08:14.980 ,1,1,,0,0.,4.8,0.,4.8,,0,0.,4.8,264.,4.8
1979-03-03 03:08:19.780 ,1,1,,0,0.,4.8,0.,4.8,,0,0.,4.8,208.,4.8
1979-03-03 03:08:24.580 ,1,1,,0,0.,4.8,0.,4.8,,0,0.,4.8,172.,4.8
1979-03-03 03:08:29.380 ,1,1,,0,0.,4.8,0.,4.8,,0,0.,4.8,144.,4.8
1979-03-03 03:08:34.180 ,1,1,,0,0.,4.8,0.,4.8,,0,0.,4.8,136.,4.8
1979-03-03 03:08:38.980 ,2,1,,0,0.,4.8,0.,4.8,,0,0.,4.8,152.,4.8
1979-03-03 03:08:43.780 ,2,1,,0,1.,4.8,0.,4.8,,0,0.,4.8,140.,4.8
1979-03-03 03:08:48.580 ,2,1,,0,0.,4.8,0.,4.8,,0,0.,4.8,152.,4.8
1979-03-03 03:08:53.380 ,2,1,,0,0.,4.8,0.,4.8,,0,0.,4.8,156.,4.8
1979-03-03 03:08:58.180 ,2,1,,0,0.,4.8,0.,4.8,,0,0.,4.8,176.,4.8
1979-03-03 03:09:02.980 ,6,1,,0,1.,4.8,0.,4.8,,0,0.,4.8,212.,4.8
1979-03-03 03:09:07.780 ,6,1,,0,0.,4.8,0.,4.8,,0,0.,4.8,304.,4.8
1979-03-03 03:09:12.580 ,6,1,,0,0.,4.8,0.,4.8,,0,0.,4.8,448.,4.8
1979-03-03 03:09:17.380 ,6,1,,0,0.,4.8,0.,4.8,,0,0.,4.8,608.,4.8
1979-03-03 03:09:22.180 ,6,1,,0,0.,4.8,0.,4.8,,0,0.,4.8,432.,4.8
1979-03-03 03:09:26.980 ,5,1,,0,0.,4.8,0.,4.8,,0,0.,4.8,0.,4.8
1979-03-03 03:09:31.780 ,5,1,,0,0.,4.8,0.,4.8,,0,0.,4.8,0.,4.8
1979-03-03 03:09:36.580 ,5,1,,0,1.,4.8,0.,4.8,,0,0.,4.8,544.,4.8
1979-03-03 03:09:41.380 ,5,1,,0,0.,4.8,0.,4.8,,0,0.,4.8,656.,4.8
1979-03-03 03:09:46.180 ,5,1,,0,1.,4.8,0.,4.8,,0,0.,4.8,472.,4.8
1979-03-03 03:09:50.980 ,1,1,,0,0.,4.8,0.,4.8,,0,0.,4.8,264.,4.8
1979-03-03 03:09:55.780 ,1,1,,0,1.,4.8,0.,4.8,,0,0.,4.8,176.,4.8
1979-03-03 03:10:00.580 ,1,1,,0,0.,4.8,0.,4.8,,0,0.,4.8,184.,4.8
1979-03-03 03:10:05.380 ,1,1,,0,0.,4.8,0.,4.8,,0,0.,4.8,136.,4.8
1979-03-03 03:10:10.180 ,1,1,,0,0.,4.8,0.,4.8,,0,0.,4.8,136.,4.8
1979-03-03 03:10:14.980 ,2,1,,0,0.,4.8,0.,4.8,,0,0.,4.8,152.,4.8
1979-03-03 03:10:19.780 ,2,1,,0,0.,4.8,0.,4.8,,0,0.,4.8,160.,4.8
1979-03-03 03:10:24.580 ,2,1,,0,2.,4.8,0.,4.8,,0,0.,4.8,136.,4.8
1979-03-03 03:10:29.380 ,2,1,,0,0.,4.8,0.,4.8,,0,0.,4.8,164.,4.8
1979-03-03 03:10:34.180 ,2,1,,0,0.,4.8,0.,4.8,,0,0.,4.8,164.,4.8
1979-03-03 03:10:38.980 ,6,1,,0,0.,4.8,0.,4.8,,0,0.,4.8,212.,4.8
1979-03-03 03:10:43.780 ,6,1,,0,0.,4.8,0.,4.8,,0,0.,4.8,296.,4.8
1979-03-03 03:10:48.580 ,6,1,,0,0.,4.8,0.,4.8,,0,0.,4.8,752.,4.8
1979-03-03 03:10:53.380 ,6,1,,0,1.,4.8,0.,4.8,,0,0.,4.8,816.,4.8
1979-03-03 03:10:58.180 ,6,1,,0,0.,4.8,0.,4.8,,0,0.,4.8,608.,4.8
1979-03-03 03:11:02.980 ,5,1,,0,0.,4.8,0.,4.8,,0,0.,4.8,0.,4.8
1979-03-03 03:11:07.780 ,5,1,,0,0.,4.8,0.,4.8,,0,0.,4.8,0.,4.8
1979-03-03 03:11:12.580 ,5,1,,0,0.,4.8,0.,4.8,,0,0.,4.8,864.,4.8
1979-03-03 03:11:17.380 ,5,1,,0,0.,4.8,0.,4.8,,0,0.,4.8,976.,4.8
1979-03-03 03:11:22.180 ,5,1,,0,2.,4.8,0.,4.8,,0,0.,4.8,768.,4.8
1979-03-03 03:11:26.980 ,1,1,,0,1.,4.8,0.,4.8,,0,0.,4.8,312.,4.8
1979-03-03 03:11:31.780 ,1,1,,0,1.,4.8,0.,4.8,,0,0.,4.8,208.,4.8
1979-03-03 03:11:36.580 ,1,1,,0,0.,4.8,0.,4.8,,0,0.,4.8,152.,4.8
1979-03-03 03:11:41.380 ,1,1,,0,0.,4.8,0.,4.8,,0,0.,4.8,144.,4.8
1979-03-03 03:11:46.180 ,1,1,,0,0.,4.8,0.,4.8,,0,0.,4.8,114.,4.8
1979-03-03 03:11:50.980 ,2,1,,0,0.,4.8,0.,4.8,,0,0.,4.8,148.,4.8
1979-03-03 03:11:55.780 ,2,1,,0,1.,4.8,0.,4.8,,0,0.,4.8,184.,4.8
1979-03-03 03:12:00.580 ,2,1,,0,1.,4.8,0.,4.8,,0,0.,4.8,132.,4.8
1979-03-03 03:12:05.380 ,2,1,,0,0.,4.8,0.,4.8,,0,0.,4.8,108.,4.8
1979-03-03 03:12:10.180 ,2,1,,0,0.,4.8,0.,4.8,,0,0.,4.8,164.,4.8
1979-03-03 03:12:14.980 ,6,1,,0,0.,4.8,0.,4.8,,0,0.,4.8,212.,4.8
1979-03-03 03:12:19.780 ,6,1,,0,0.,4.8,0.,4.8,,0,0.,4.8,496.,4.8
1979-03-03 03:12:24.580 ,6,1,,0,2.,4.8,0.,4.8,,0,0.,4.8,976.,4.8
1979-03-03 03:12:29.380 ,6,1,,0,0.,4.8,0.,4.8,,0,0.,4.8,1088.,4.8
1979-03-03 03:12:34.180 ,6,1,,0,0.,4.8,0.,4.8,,0,0.,4.8,784.,4.8
1979-03-03 03:12:38.980 ,5,1,,0,0.,4.8,0.,4.8,,0,0.,4.8,0.,4.8
1979-03-03 03:12:43.780 ,5,1,,0,0.,4.8,0.,4.8,,0,0.,4.8,0.,4.8
1979-03-03 03:12:48.580 ,5,1,,0,0.,4.8,0.,4.8,,0,0.,4.8,960.,4.8
1979-03-03 03:12:53.380 ,5,1,,0,0.,4.8,0.,4.8,,0,0.,4.8,1248.,4.8
1979-03-03 03:12:58.180 ,5,1,,0,0.,4.8,0.,4.8,,0,0.,4.8,1008.,4.8
1979-03-03 03:13:02.980 ,1,1,,0,0.,4.8,0.,4.8,,0,0.,4.8,544.,4.8
1979-03-03 03:13:07.780 ,1,1,,0,0.,4.8,0.,4.8,,0,0.,4.8,200.,4.8
1979-03-03 03:13:12.580 ,1,1,,0,0.,4.8,0.,4.8,,0,0.,4.8,152.,4.8
1979-03-03 03:13:17.380 ,1,1,,0,1.,4.8,0.,4.8,,0,0.,4.8,122.,4.8
1979-03-03 03:13:22.180 ,1,1,,0,1.,4.8,0.,4.8,,0,0.,4.8,136.,4.8
1979-03-03 03:13:26.980 ,2,1,,0,1.,4.8,0.,4.8,,0,0.,4.8,184.,4.8
1979-03-03 03:13:31.780 ,2,1,,0,0.,4.8,0.,4.8,,0,0.,4.8,188.,4.8
1979-03-03 03:13:36.580 ,2,1,,0,0.,4.8,0.,4.8,,0,0.,4.8,148.,4.8
1979-03-03 03:13:41.380 ,2,1,,0,0.,4.8,0.,4.8,,0,0.,4.8,116.,4.8
1979-03-03 03:13:46.180 ,2,1,,0,1.,4.8,0.,4.8,,0,0.,4.8,152.,4.8
1979-03-03 03:13:50.980 ,6,1,,0,0.,4.8,0.,4.8,,0,0.,4.8,216.,4.8
1979-03-03 03:13:55.780 ,6,1,,0,0.,4.8,0.,4.8,,0,0.,4.8,688.,4.8
1979-03-03 03:14:00.580 ,6,1,,0,0.,4.8,0.,4.8,,0,0.,4.8,1088.,4.8
1979-03-03 03:14:05.380 ,6,1,,0,2.,4.8,0.,4.8,,0,0.,4.8,1056.,4.8
1979-03-03 03:14:10.180 ,6,1,,0,0.,4.8,0.,4.8,,0,0.,4.8,576.,4.8
1979-03-03 03:14:14.980 ,5,1,,0,0.,4.8,0.,4.8,,0,0.,4.8,0.,4.8
1979-03-03 03:14:19.780 ,5,1,,0,0.,4.8,0.,4.8,,0,0.,4.8,0.,4.8
1979-03-03 03:14:24.580 ,5,1,,0,0.,4.8,0.,4.8,,0,0.,4.8,640.,4.8
1979-03-03 03:14:29.380 ,5,1,,0,0.,4.8,0.,4.8,,0,0.,4.8,896.,4.8
1979-03-03 03:14:34.180 ,5,1,,0,1.,4.8,0.,4.8,,0,0.,4.8,880.,4.8
1979-03-03 03:14:38.980 ,1,1,,0,1.,4.8,0.,4.8,,0,0.,4.8,656.,4.8
1979-03-03 03:14:43.780 ,1,1,,0,0.,4.8,0.,4.8,,0,0.,4.8,212.,4.8
1979-03-03 03:14:48.580 ,1,1,,0,0.,4.8,0.,4.8,,0,0.,4.8,168.,4.8
1979-03-03 03:14:53.380 ,1,1,,0,0.,4.8,0.,4.8,,0,0.,4.8,136.,4.8
1979-03-03 03:14:58.180 ,1,1,,0,0.,4.8,0.,4.8,,0,0.,4.8,168.,4.8
1979-03-03 03:15:02.980 ,2,1,,0,1.,4.8,0.,4.8,,0,0.,4.8,216.,4.8
1979-03-03 03:15:07.780 ,2,1,,0,0.,4.8,0.,4.8,,0,0.,4.8,232.,4.8
1979-03-03 03:15:12.580 ,2,1,,0,0.,4.8,0.,4.8,,0,0.,4.8,168.,4.8
1979-03-03 03:15:17.380 ,2,1,,0,1.,4.8,0.,4.8,,0,0.,4.8,140.,4.8
1979-03-03 03:15:22.180 ,2,1,,0,0.,4.8,0.,4.8,,0,0.,4.8,168.,4.8
1979-03-03 03:15:26.980 ,6,1,,0,0.,4.8,0.,4.8,,0,0.,4.8,264.,4.8
1979-03-03 03:15:31.780 ,6,1,,0,1.,4.8,0.,4.8,,0,0.,4.8,640.,4.8
1979-03-03 03:15:36.580 ,6,1,,0,0.,4.8,0.,4.8,,0,0.,4.8,752.,4.8
1979-03-03 03:15:41.380 ,6,1,,0,0.,4.8,0.,4.8,,0,0.,4.8,608.,4.8
1979-03-03 03:15:46.180 ,6,1,,0,1.,4.8,0.,4.8,,0,0.,4.8,344.,4.8
1979-03-03 03:15:50.980 ,5,1,,0,0.,4.8,0.,4.8,,0,0.,4.8,0.,4.8
1979-03-03 03:15:55.780 ,5,1,,0,0.,4.8,0.,4.8,,0,0.,4.8,0.,4.8
1979-03-03 03:16:00.580 ,5,1,,0,0.,4.8,0.,4.8,,0,0.,4.8,416.,4.8
1979-03-03 03:16:05.380 ,5,1,,0,0.,4.8,0.,4.8,,0,0.,4.8,608.,4.8
1979-03-03 03:16:10.180 ,5,1,,0,0.,4.8,0.,4.8,,0,0.,4.8,656.,4.8
1979-03-03 03:16:14.980 ,1,1,,0,0.,4.8,0.,4.8,,0,0.,4.8,448.,4.8
1979-03-03 03:16:19.780 ,1,1,,0,0.,4.8,0.,4.8,,0,0.,4.8,196.,4.8
1979-03-03 03:16:24.580 ,1,1,,0,0.,4.8,0.,4.8,,0,0.,4.8,140.,4.8
1979-03-03 03:16:29.380 ,1,1,,0,3.,4.8,0.,4.8,,0,0.,4.8,148.,4.8
1979-03-03 03:16:34.180 ,1,1,,0,0.,4.8,0.,4.8,,0,0.,4.8,180.,4.8
1979-03-03 03:16:38.980 ,2,1,,0,0.,4.8,0.,4.8,,0,0.,4.8,228.,4.8
1979-03-03 03:16:43.780 ,2,1,,0,0.,4.8,0.,4.8,,0,0.,4.8,232.,4.8
1979-03-03 03:16:48.580 ,2,1,,0,0.,4.8,0.,4.8,,0,0.,4.8,172.,4.8
1979-03-03 03:16:53.380 ,2,1,,0,0.,4.8,0.,4.8,,0,0.,4.8,140.,4.8
1979-03-03 03:16:58.180 ,2,1,,0,1.,4.8,0.,4.8,,0,0.,4.8,160.,4.8
1979-03-03 03:17:02.980 ,6,1,,0,0.,4.8,0.,4.8,,0,0.,4.8,204.,4.8
1979-03-03 03:17:07.780 ,6,1,,0,1.,4.8,0.,4.8,,0,0.,4.8,480.,4.8
1979-03-03 03:17:12.580 ,6,1,,0,0.,4.8,0.,4.8,,0,0.,4.8,544.,4.8
1979-03-03 03:17:17.380 ,6,1,,0,0.,4.8,0.,4.8,,0,0.,4.8,496.,4.8
1979-03-03 03:17:22.180 ,6,1,,0,0.,4.8,0.,4.8,,0,0.,4.8,296.,4.8
1979-03-03 03:17:26.980 ,5,1,,0,1.,4.8,0.,4.8,,0,0.,4.8,0.,4.8
1979-03-03 03:17:31.780 ,5,1,,0,0.,4.8,0.,4.8,,0,0.,4.8,0.,4.8
1979-03-03 03:17:36.580 ,5,1,,0,2.,4.8,0.,4.8,,0,0.,4.8,352.,4.8
1979-03-03 03:17:41.380 ,5,1,,0,0.,4.8,0.,4.8,,0,0.,4.8,432.,4.8
1979-03-03 03:17:46.180 ,5,1,,0,0.,4.8,0.,4.8,,0,0.,4.8,416.,4.8
1979-03-03 03:17:50.980 ,1,1,,0,0.,4.8,0.,4.8,,0,0.,4.8,408.,4.8
1979-03-03 03:17:55.780 ,1,1,,0,0.,4.8,0.,4.8,,0,0.,4.8,224.,4.8
1979-03-03 03:18:00.580 ,1,1,,0,0.,4.8,0.,4.8,,0,0.,4.8,156.,4.8
1979-03-03 03:18:05.380 ,1,1,,0,0.,4.8,0.,4.8,,0,0.,4.8,144.,4.8
1979-03-03 03:18:10.180 ,1,1,,0,0.,4.8,0.,4.8,,0,0.,4.8,200.,4.8
1979-03-03 03:18:14.980 ,2,1,,0,0.,4.8,0.,4.8,,0,0.,4.8,188.,4.8
1979-03-03 03:18:19.780 ,2,1,,0,0.,4.8,0.,4.8,,0,0.,4.8,212.,4.8
1979-03-03 03:18:24.580 ,2,1,,0,2.,4.8,0.,4.8,,0,0.,4.8,172.,4.8
1979-03-03 03:18:29.380 ,2,1,,0,1.,4.8,0.,4.8,,0,0.,4.8,184.,4.8
1979-03-03 03:18:34.180 ,2,1,,0,0.,4.8,0.,4.8,,0,0.,4.8,204.,4.8
1979-03-03 03:18:38.980 ,6,1,,0,0.,4.8,0.,4.8,,0,0.,4.8,244.,4.8
1979-03-03 03:18:43.780 ,6,1,,0,1.,4.8,0.,4.8,,0,0.,4.8,352.,4.8
1979-03-03 03:18:48.580 ,6,1,,0,1.,4.8,0.,4.8,,0,0.,4.8,408.,4.8
1979-03-03 03:18:53.380 ,6,1,,0,1.,4.8,0.,4.8,,0,0.,4.8,456.,4.8
1979-03-03 03:18:58.180 ,6,1,,0,2.,4.8,0.,4.8,,0,0.,4.8,328.,4.8
1979-03-03 03:19:02.980 ,5,1,,0,0.,4.8,0.,4.8,,0,0.,4.8,0.,4.8
1979-03-03 03:19:07.780 ,5,1,,0,0.,4.8,0.,4.8,,0,0.,4.8,0.,4.8
1979-03-03 03:19:12.580 ,5,1,,0,0.,4.8,0.,4.8,,0,0.,4.8,400.,4.8
1979-03-03 03:19:17.380 ,5,1,,0,1.,4.8,0.,4.8,,0,0.,4.8,432.,4.8
1979-03-03 03:19:22.180 ,5,1,,0,1.,4.8,0.,4.8,,0,0.,4.8,400.,4.8
1979-03-03 03:19:26.980 ,1,1,,0,0.,4.8,0.,4.8,,0,0.,4.8,344.,4.8
1979-03-03 03:19:31.780 ,1,1,,0,1.,4.8,0.,4.8,,0,0.,4.8,272.,4.8
1979-03-03 03:19:36.580 ,1,1,,0,0.,4.8,0.,4.8,,0,0.,4.8,184.,4.8
1979-03-03 03:19:41.380 ,1,1,,0,0.,4.8,0.,4.8,,0,0.,4.8,136.,4.8
1979-03-03 03:19:46.180 ,1,1,,0,1.,4.8,0.,4.8,,0,0.,4.8,152.,4.8
1979-03-03 03:19:50.980 ,2,1,,0,0.,4.8,0.,4.8,,0,0.,4.8,196.,4.8
1979-03-03 03:19:55.780 ,2,1,,0,0.,4.8,0.,4.8,,0,0.,4.8,204.,4.8
1979-03-03 03:20:00.580 ,2,1,,0,1.,4.8,0.,4.8,,0,0.,4.8,144.,4.8
1979-03-03 03:20:05.380 ,2,1,,0,0.,4.8,0.,4.8,,0,0.,4.8,140.,4.8
1979-03-03 03:20:10.180 ,2,1,,0,0.,4.8,0.,4.8,,0,0.,4.8,132.,4.8
1979-03-03 03:20:14.980 ,6,1,,0,0.,4.8,0.,4.8,,0,0.,4.8,196.,4.8
1979-03-03 03:20:19.780 ,6,1,,0,1.,4.8,0.,4.8,,0,0.,4.8,320.,4.8
1979-03-03 03:20:24.580 ,6,1,,0,0.,4.8,0.,4.8,,0,0.,4.8,456.,4.8
1979-03-03 03:20:29.380 ,6,1,,0,1.,4.8,0.,4.8,,0,0.,4.8,480.,4.8
1979-03-03 03:20:34.180 ,6,1,,0,0.,4.8,0.,4.8,,0,0.,4.8,304.,4.8
1979-03-03 03:20:38.980 ,5,1,,0,0.,4.8,0.,4.8,,0,0.,4.8,0.,4.8
1979-03-03 03:20:43.780 ,5,1,,0,0.,4.8,0.,4.8,,0,0.,4.8,0.,4.8
1979-03-03 03:20:48.580 ,5,1,,0,0.,4.8,0.,4.8,,0,0.,4.8,408.,4.8
1979-03-03 03:20:53.380 ,5,1,,0,0.,4.8,0.,4.8,,0,0.,4.8,496.,4.8
1979-03-03 03:20:58.180 ,5,1,,0,0.,4.8,0.,4.8,,0,0.,4.8,416.,4.8
1979-03-03 03:21:02.980 ,1,1,,0,1.,4.8,0.,4.8,,0,0.,4.8,352.,4.8
1979-03-03 03:21:07.780 ,1,1,,0,0.,4.8,0.,4.8,,0,0.,4.8,240.,4.8
1979-03-03 03:21:12.580 ,1,1,,0,0.,4.8,0.,4.8,,0,0.,4.8,196.,4.8
1979-03-03 03:21:17.380 ,1,1,,0,0.,4.8,0.,4.8,,0,0.,4.8,136.,4.8
1979-03-03 03:21:22.180 ,1,1,,0,0.,4.8,0.,4.8,,0,0.,4.8,160.,4.8
1979-03-03 03:21:26.980 ,2,1,,0,2.,4.8,0.,4.8,,0,0.,4.8,212.,4.8
1979-03-03 03:21:31.780 ,2,1,,0,0.,4.8,0.,4.8,,0,0.,4.8,200.,4.8
1979-03-03 03:21:36.580 ,2,1,,0,0.,4.8,0.,4.8,,0,0.,4.8,140.,4.8
1979-03-03 03:21:41.380 ,2,1,,0,0.,4.8,0.,4.8,,0,0.,4.8,148.,4.8
1979-03-03 03:21:46.180 ,2,1,,0,1.,4.8,0.,4.8,,0,0.,4.8,180.,4.8
1979-03-03 03:21:50.980 ,6,1,,0,0.,4.8,0.,4.8,,0,0.,4.8,252.,4.8
1979-03-03 03:21:55.780 ,6,1,,0,3.,4.8,0.,4.8,,0,0.,4.8,352.,4.8
1979-03-03 03:22:00.580 ,6,1,,0,0.,4.8,0.,4.8,,0,0.,4.8,496.,4.8
1979-03-03 03:22:05.380 ,6,1,,0,1.,4.8,0.,4.8,,0,0.,4.8,448.,4.8
1979-03-03 03:22:10.180 ,6,1,,0,0.,4.8,0.,4.8,,0,0.,4.8,280.,4.8
1979-03-03 03:22:14.980 ,5,1,,0,0.,4.8,0.,4.8,,0,0.,4.8,0.,4.8
1979-03-03 03:22:19.780 ,5,1,,0,0.,4.8,0.,4.8,,0,0.,4.8,0.,4.8
1979-03-03 03:22:24.580 ,5,1,,0,0.,4.8,0.,4.8,,0,0.,4.8,360.,4.8
1979-03-03 03:22:29.380 ,5,1,,0,1.,4.8,0.,4.8,,0,0.,4.8,464.,4.8
1979-03-03 03:22:34.180 ,5,1,,0,0.,4.8,0.,4.8,,0,0.,4.8,472.,4.8
1979-03-03 03:22:38.980 ,1,1,,0,0.,4.8,0.,4.8,,0,0.,4.8,384.,4.8
1979-03-03 03:22:43.780 ,1,1,,0,0.,4.8,0.,4.8,,0,0.,4.8,256.,4.8
1979-03-03 03:22:48.580 ,1,1,,0,0.,4.8,0.,4.8,,0,0.,4.8,180.,4.8
1979-03-03 03:22:53.380 ,1,1,,0,0.,4.8,0.,4.8,,0,0.,4.8,156.,4.8
1979-03-03 03:22:58.180 ,1,1,,0,0.,4.8,0.,4.8,,0,0.,4.8,152.,4.8
1979-03-03 03:24:38.980 ,0,0,,0,0.,4.8,0.,4.8,,0,0.,4.8,136.,4.8
1979-03-03 03:24:43.780 ,0,0,,0,0.,4.8,0.,4.8,,0,0.,4.8,172.,4.8
1979-03-03 03:24:48.580 ,0,0,,0,0.,4.8,0.,4.8,,0,0.,4.8,144.,4.8
1979-03-03 03:24:53.380 ,0,0,,0,0.,4.8,0.,4.8,,0,0.,4.8,160.,4.8
1979-03-03 03:24:58.180 ,0,0,,0,0.,4.8,0.,4.8,,0,0.,4.8,200.,4.8
1979-03-03 03:25:02.980 ,6,1,,0,0.,4.8,0.,4.8,,0,0.,4.8,252.,4.8
1979-03-03 03:25:07.780 ,6,1,,0,1.,4.8,0.,4.8,,0,0.,4.8,320.,4.8
1979-03-03 03:25:12.580 ,6,1,,0,0.,4.8,0.,4.8,,0,0.,4.8,408.,4.8
1979-03-03 03:25:17.380 ,6,1,,0,0.,4.8,0.,4.8,,0,0.,4.8,472.,4.8
1979-03-03 03:25:22.180 ,6,1,,0,0.,4.8,0.,4.8,,0,0.,4.8,352.,4.8
1979-03-03 03:25:26.980 ,5,1,,0,1.,4.8,0.,4.8,,0,0.,4.8,0.,4.8
1979-03-03 03:25:31.780 ,5,1,,0,0.,4.8,0.,4.8,,0,0.,4.8,0.,4.8
1979-03-03 03:25:36.580 ,5,1,,0,0.,4.8,0.,4.8,,0,0.,4.8,432.,4.8
1979-03-03 03:25:41.380 ,5,1,,0,0.,4.8,0.,4.8,,0,0.,4.8,472.,4.8
1979-03-03 03:25:46.180 ,5,1,,0,0.,4.8,0.,4.8,,0,0.,4.8,440.,4.8
1979-03-03 03:25:50.980 ,1,1,,0,0.,4.8,0.,4.8,,0,0.,4.8,264.,4.8
1979-03-03 03:25:55.780 ,1,1,,0,0.,4.8,0.,4.8,,0,0.,4.8,220.,4.8
1979-03-03 03:26:00.580 ,1,1,,0,0.,4.8,0.,4.8,,0,0.,4.8,164.,4.8
1979-03-03 03:26:05.380 ,1,1,,0,0.,4.8,0.,4.8,,0,0.,4.8,106.,4.8
1979-03-03 03:26:10.180 ,1,1,,0,0.,4.8,0.,4.8,,0,0.,4.8,108.,4.8
1979-03-03 03:26:14.980 ,2,1,,0,0.,4.8,0.,4.8,,0,0.,4.8,140.,4.8
1979-03-03 03:26:19.780 ,2,1,,0,0.,4.8,0.,4.8,,0,0.,4.8,168.,4.8
1979-03-03 03:26:24.580 ,2,1,,0,0.,4.8,0.,4.8,,0,0.,4.8,132.,4.8
1979-03-03 03:26:29.380 ,2,1,,0,0.,4.8,0.,4.8,,0,0.,4.8,126.,4.8
1979-03-03 03:26:34.180 ,2,1,,0,0.,4.8,0.,4.8,,0,0.,4.8,156.,4.8
1979-03-03 03:26:38.980 ,6,1,,0,0.,4.8,0.,4.8,,0,0.,4.8,224.,4.8
1979-03-03 03:26:43.780 ,6,1,,0,0.,4.8,0.,4.8,,0,0.,4.8,272.,4.8
1979-03-03 03:26:48.580 ,6,1,,0,0.,4.8,0.,4.8,,0,0.,4.8,496.,4.8
1979-03-03 03:26:53.380 ,6,1,,0,0.,4.8,0.,4.8,,0,0.,4.8,576.,4.8
1979-03-03 03:26:58.180 ,6,1,,0,0.,4.8,0.,4.8,,0,0.,4.8,360.,4.8
1979-03-03 03:27:02.980 ,5,1,,0,0.,4.8,0.,4.8,,0,0.,4.8,0.,4.8
1979-03-03 03:27:07.780 ,5,1,,0,0.,4.8,0.,4.8,,0,0.,4.8,0.,4.8
1979-03-03 03:27:12.580 ,5,1,,0,0.,4.8,0.,4.8,,0,0.,4.8,504.,4.8
1979-03-03 03:27:17.380 ,5,1,,0,0.,4.8,0.,4.8,,0,0.,4.8,496.,4.8
1979-03-03 03:27:22.180 ,5,1,,0,0.,4.8,0.,4.8,,0,0.,4.8,440.,4.8
1979-03-03 03:27:26.980 ,1,1,,0,0.,4.8,0.,4.8,,0,0.,4.8,296.,4.8
1979-03-03 03:27:31.780 ,1,1,,0,1.,4.8,0.,4.8,,0,0.,4.8,208.,4.8
1979-03-03 03:27:36.580 ,1,1,,0,0.,4.8,0.,4.8,,0,0.,4.8,128.,4.8
1979-03-03 03:27:41.380 ,1,1,,0,0.,4.8,0.,4.8,,0,0.,4.8,122.,4.8
1979-03-03 03:27:46.180 ,1,1,,0,2.,4.8,0.,4.8,,0,0.,4.8,132.,4.8
1979-03-03 03:27:50.980 ,2,1,,0,0.,4.8,0.,4.8,,0,0.,4.8,148.,4.8
1979-03-03 03:27:55.780 ,2,1,,0,0.,4.8,0.,4.8,,0,0.,4.8,144.,4.8
1979-03-03 03:28:00.580 ,2,1,,0,1.,4.8,0.,4.8,,0,0.,4.8,116.,4.8
1979-03-03 03:28:05.380 ,2,1,,0,0.,4.8,0.,4.8,,0,0.,4.8,86.,4.8
1979-03-03 03:28:10.180 ,2,1,,0,0.,4.8,0.,4.8,,0,0.,4.8,152.,4.8
1979-03-03 03:28:14.980 ,6,1,,0,0.,4.8,0.,4.8,,0,0.,4.8,212.,4.8
1979-03-03 03:28:19.780 ,6,1,,0,0.,4.8,0.,4.8,,0,0.,4.8,288.,4.8
1979-03-03 03:28:24.580 ,6,1,,0,0.,4.8,0.,4.8,,0,0.,4.8,528.,4.8
1979-03-03 03:28:29.380 ,6,1,,0,0.,4.8,0.,4.8,,0,0.,4.8,672.,4.8
1979-03-03 03:28:34.180 ,6,1,,0,0.,4.8,0.,4.8,,0,0.,4.8,448.,4.8
1979-03-03 03:28:38.980 ,5,1,,0,1.,4.8,0.,4.8,,0,0.,4.8,0.,4.8
1979-03-03 03:28:43.780 ,5,1,,0,0.,4.8,0.,4.8,,0,0.,4.8,0.,4.8
1979-03-03 03:28:48.580 ,5,1,,0,0.,4.8,0.,4.8,,0,0.,4.8,592.,4.8
1979-03-03 03:28:53.380 ,5,1,,0,0.,4.8,0.,4.8,,0,0.,4.8,656.,4.8
1979-03-03 03:28:58.180 ,5,1,,0,0.,4.8,0.,4.8,,0,0.,4.8,512.,4.8
1979-03-03 03:29:02.980 ,1,1,,0,0.,4.8,0.,4.8,,0,0.,4.8,312.,4.8
1979-03-03 03:29:07.780 ,1,1,,0,0.,4.8,0.,4.8,,0,0.,4.8,204.,4.8
1979-03-03 03:29:12.580 ,1,1,,0,0.,4.8,0.,4.8,,0,0.,4.8,110.,4.8
1979-03-03 03:29:17.380 ,1,1,,0,0.,4.8,0.,4.8,,0,0.,4.8,100.,4.8
1979-03-03 03:29:22.180 ,1,1,,0,0.,4.8,0.,4.8,,0,0.,4.8,100.,4.8
1979-03-03 03:29:26.980 ,2,1,,0,0.,4.8,0.,4.8,,0,0.,4.8,124.,4.8
1979-03-03 03:29:31.780 ,2,1,,0,0.,4.8,0.,4.8,,0,0.,4.8,124.,4.8
1979-03-03 03:29:36.580 ,2,1,,0,1.,4.8,0.,4.8,,0,0.,4.8,112.,4.8
1979-03-03 03:29:41.380 ,2,1,,0,1.,4.8,0.,4.8,,0,0.,4.8,86.,4.8
1979-03-03 03:29:46.180 ,2,1,,0,1.,4.8,0.,4.8,,0,0.,4.8,116.,4.8
1979-03-03 03:29:50.980 ,6,1,,0,0.,4.8,0.,4.8,,0,0.,4.8,208.,4.8
1979-03-03 03:29:55.780 ,6,1,,0,0.,4.8,0.,4.8,,0,0.,4.8,368.,4.8
1979-03-03 03:30:00.580 ,6,1,,0,1.,4.8,0.,4.8,,0,0.,4.8,608.,4.8
1979-03-03 03:30:05.380 ,6,1,,0,0.,4.8,0.,4.8,,0,0.,4.8,656.,4.8
1979-03-03 03:30:10.180 ,6,1,,0,1.,4.8,0.,4.8,,0,0.,4.8,504.,4.8
1979-03-03 03:30:14.980 ,5,1,,0,1.,4.8,0.,4.8,,0,0.,4.8,0.,4.8
1979-03-03 03:30:19.780 ,5,1,,0,0.,4.8,0.,4.8,,0,0.,4.8,0.,4.8
1979-03-03 03:30:24.580 ,5,1,,0,0.,4.8,0.,4.8,,0,0.,4.8,544.,4.8
1979-03-03 03:30:29.380 ,5,1,,0,0.,4.8,0.,4.8,,0,0.,4.8,672.,4.8